308635 (2005 YU55) |
Classification: Apollo [NEO, PHA] SPK-ID: 2308635 |
[ hide orbit diagram ]
For accurate long-term ephemerides, please instead use our Horizons system.This orbit viewer was implemented using two-body methods, and hence should not be used for determining accurate long-term trajectories (over several years or decades) or planetary encounter circumstances.
Orbital Elements at Epoch 2459200.5 (2020-Dec-17.0) TDB
Reference: JPL 129 (heliocentric ecliptic J2000)
Element | Value | Uncertainty (1-sigma) | Units |
e | .4305588718449276 | 1.6426e-09 | |
a | 1.157113899696633 | 4.087e-09 | au |
q | .6589082444471663 | 2.5728e-09 | au |
i | .3402453221558241 | 1.1612e-06 | deg |
node | 35.91984915148014 | 4.066e-05 | deg |
peri | 273.5848438130553 | 4.0634e-05 | deg |
M | 160.5509754572674 | 1.5554e-05 | deg |
tp | 2458997.744314836799 (2020-May-28.24431484) | 1.8569e-05 | TDB |
period | 454.63471306146 1.24 | 2.4087e-06 6.595e-09 | d yr |
n | .7918445064957748 | 4.1952e-09 | deg/d |
Q | 1.655319554946101 | 5.8467e-09 | au |
|
| | Orbit Determination Parameters
Additional Information
|
[ show covariance matrix ]
Physical Parameter Table
Parameter |
Symbol |
Value |
Units |
Sigma |
Reference |
Notes |
absolute magnitude |
H |
21.9 |
|
n/a |
MPO254628 |
|
magnitude slope |
G |
-0.12 |
|
n/a |
The Astronomer's Telegram, #3763 |
|
diameter |
diameter |
0.4 |
km |
n/a |
2010 radar result |
http://echo.jpl.nasa.gov/asteroids/2005YU55/2005YU55_planning.html |
rotation period |
rot_per |
18 |
h |
n/a |
2010 radar result |
http://echo.jpl.nasa.gov/asteroids/2005YU55/2005YU55_planning.html |
SMASSII spectral type |
spec_B |
C |
|
n/a |
M. Hicks et al., ATel 2571, 2010 |
also R. Binzel, personal communication |
|
308635 (2005 YU55) Discovered 2005-Dec-28 by Spacewatch at Kitt Peak |
Reference: 20111210/Numbers.arc | Last Updated: 2011-12-12 |
|
[ show close-approach data ]
|